Location: Dattensoll
(49.9928°N, 9.8954°E)
Time: 05:21:22
(UTC+00:00)

Helios 1A - Pass Details

Date: 19 May 2025
Orbit: 544 x 570 km, 98.3° (Epoch: 03 June)

Event Time Altitude Azimuth Distance (km) Brightness Sun altitude
Rises 20:41:32 0° 8° (N) 2,789 7.2 -12.1°
Reaches altitude 10° 20:43:48 10° 0° (N) 1,884 6.4 -12.3°
Maximum altitude 20:47:34 37° 293° (WNW) 890 4.4 -12.6°
Drops below altitude 10° 20:51:17 10° 225° (SW) 1,860 5.4 -13.0°
Sets 20:53:31 0° 217° (SW) 2,747 6.2 -13.2°
